Date,TemperatureHighF,TemperatureAvgF,TemperatureLowF,DewpointHighF,DewpointAvgF,DewpointLowF,HumidityHigh,HumidityAvg,HumidityLow,PressureMaxIn,PressureMinIn,WindSpeedMaxMPH,WindSpeedAvgMPH,GustSpeedMaxMPH,PrecipitationSumIn
2013-2-1,39.6,25.8,18.6,29.5,14.6,5.4,90,63,43,30.48,30.05,27,4,27,0.00
2013-2-2,34.1,25.5,19.4,30.7,19.5,5.6,95,79,51,30.46,30.14,19,1,19,0.00
2013-2-3,38.2,33.4,28.4,33.1,27.6,22.2,95,79,67,30.18,30.04,21,2,21,0.16
2013-2-4,43.5,35.0,25.9,32.0,24.5,16.9,82,66,51,30.22,30.03,15,0,15,0.08
2013-2-5,56.4,43.5,36.1,43.5,34.4,25.5,93,71,47,30.08,29.95,9,0,9,0.01
2013-2-6,59.0,48.0,39.7,39.5,30.3,21.8,81,54,26,30.22,30.04,18,1,18,0.00
2013-2-7,47.2,43.2,40.0,41.6,34.7,24.8,95,73,52,30.21,29.97,13,1,13,0.18
2013-2-8,48.3,41.4,32.3,44.5,38.4,28.1,97,89,68,30.25,29.94,15,1,17,0.06
2013-2-9,58.7,42.6,27.2,33.3,26.7,18.6,90,57,30,30.38,30.21,14,1,14,0.00
2013-2-10,55.0,44.3,40.8,45.3,31.6,23.8,98,64,31,30.35,30.09,17,1,17,0.81
2013-2-11,53.6,48.7,44.0,51.3,42.4,23.5,99,81,41,30.14,30.04,16,0,16,0.24
2013-2-12,52.2,43.7,38.7,37.7,31.6,23.9,93,64,42,30.17,29.89,13,1,13,0.15
2013-2-13,45.1,38.7,33.2,43.9,36.6,30.4,98,92,82,29.99,29.72,21,2,21,0.14
2013-2-14,53.6,39.4,30.9,35.9,30.4,27.1,91,72,42,30.13,29.99,17,1,17,0.00
2013-2-15,53.9,39.3,31.1,38.8,33.0,28.2,92,79,48,30.18,30.00,18,1,18,0.11
2013-2-16,33.0,27.3,21.1,29.6,22.1,13.0,88,81,67,30.18,30.00,16,2,16,0.00
2013-2-17,33.4,25.8,17.3,16.6,12.9,10.2,76,59,43,30.34,30.17,22,2,22,0.01
2013-2-18,54.3,37.8,24.2,30.0,22.2,13.6,75,54,37,30.44,30.13,17,1,17,0.00
2013-2-19,48.2,38.9,31.0,41.9,27.7,16.5,97,67,36,30.18,29.96,26,3,26,0.44
2013-2-20,42.4,33.4,26.9,19.8,10.1,-1.1,63,41,17,30.25,30.17,18,2,18,0.00
2013-2-21,60.2,41.7,26.5,38.4,23.6,12.0,94,52,26,30.29,30.02,13,0,13,0.60
2013-2-22,44.0,40.4,37.1,43.2,38.8,35.1,97,94,89,30.20,30.06,19,1,19,0.38
2013-2-23,53.9,47.8,42.6,51.8,44.7,34.1,99,90,59,30.09,29.85,10,0,10,0.42
2013-2-24,56.9,45.3,37.5,40.0,31.2,24.5,90,60,34,30.08,29.90,19,2,19,0.00
2013-2-25,51.1,41.6,32.5,40.8,31.0,25.1,90,67,49,30.12,29.89,18,1,18,0.00
2013-2-26,58.2,46.1,36.6,51.0,41.6,32.4,98,85,70,29.90,29.48,26,4,26,1.01
2013-2-27,51.9,40.4,34.4,37.7,31.9,28.6,88,73,46,29.89,29.68,25,3,25,0.03
2013-2-28,35.7,30.9,28.8,29.2,25.6,23.8,90,81,71,30.05,29.81,19,3,19,0.00